| time (UTC) | temp C | wind direction | speed KPH | gust KPH | rain 1hr cm | rain 24hr cm | rain mn cm | humidity % | barometer mb |
| 20260503215423 | 18 | 286 | 3.2 | 6.4 | 0.00 | 0.00 | 0.00 | 39 | 1015.1 |
| 20260503213920 | 16 | 282 | 1.6 | 3.2 | 0.00 | 0.00 | 0.00 | 42 | 1015.1 |
| 20260503212410 | 17 | 243 | 3.2 | 4.8 | 0.00 | 0.00 | 0.00 | 41 | 1015.3 |
| 20260503210904 | 17 | 249 | 1.6 | 3.2 | 0.00 | 0.00 | 0.00 | 39 | 1015.2 |
| 20260503205400 | 19 | 223 | 3.2 | 6.4 | 0.00 | 0.00 | 0.00 | 35 | 1015.2 |
| 20260503203850 | 18 | 243 | 3.2 | 4.8 | 0.00 | 0.00 | 0.00 | 36 | 1015.4 |
| 20260503202346 | 18 | 241 | 11.3 | 12.9 | 0.00 | 0.00 | 0.00 | 34 | 1015.4 |
| 20260503200905 | 19 | 277 | 0.0 | 1.6 | 0.00 | 0.00 | 0.00 | 36 | 1015.8 |
| 20260503195344 | 18 | 235 | 3.2 | 6.4 | 0.00 | 0.00 | 0.00 | 34 | 1015.8 |
| 20260503193843 | 18 | 267 | 6.4 | 8.0 | 0.00 | 0.00 | 0.00 | 34 | 1016.0 |
| 20260503192341 | 19 | 235 | 11.3 | 20.9 | 0.00 | 0.00 | 0.00 | 34 | 1016.2 |
| 20260503190840 | 18 | 256 | 4.8 | 8.0 | 0.00 | 0.00 | 0.00 | 35 | 1016.3 |
| 20260503185358 | 18 | 242 | 3.2 | 4.8 | 0.00 | 0.00 | 0.00 | 35 | 1016.6 |
| 20260503183838 | 19 | 250 | 8.0 | 16.1 | 0.00 | 0.00 | 0.00 | 35 | 1016.9 |
| 20260503182335 | 19 | 290 | 3.2 | 4.8 | 0.00 | 0.00 | 0.00 | 35 | 1017.0 |
| 20260503180835 | 18 | 221 | 1.6 | 3.2 | 0.00 | 0.00 | 0.00 | 35 | 1017.1 |
| 20260503175333 | 18 | 213 | 8.0 | 9.7 | 0.00 | 0.00 | 0.00 | 33 | 1017.5 |
| 20260503173830 | 19 | 275 | 4.8 | 9.7 | 0.00 | 0.00 | 0.00 | 32 | 1017.4 |
| 20260503172350 | 17 | 243 | 8.0 | 12.9 | 0.00 | 0.00 | 0.00 | 35 | 1017.9 |
| 20260503170830 | 17 | 193 | 6.4 | 14.5 | 0.00 | 0.00 | 0.00 | 37 | 1017.8 |
| 20260503131247 | 10 | 242 | 3.2 | 6.4 | 0.00 | 0.00 | 0.00 | 52 | 1019.7 |
| 20260503081126 | 2 | 270 | 0.0 | 0.0 | 0.00 | 0.00 | 0.00 | 74 | 1020.0 |
| 20260503072548 | 2 | 272 | 0.0 | 0.0 | 0.00 | 0.00 | 0.00 | 76 | 1020.1 |
| 20260503071047 | 2 | 272 | 0.0 | 0.0 | 0.00 | 0.00 | 0.00 | 76 | 1020.0 |
| 20260503054046 | 2 | 273 | 0.0 | 0.0 | 0.00 | 0.00 | 0.00 | 78 | 1020.6 |
| 20260503052519 | 2 | 273 | 0.0 | 0.0 | 0.00 | 0.00 | 0.00 | 79 | 1020.6 |
| 20260503051017 | 2 | 273 | 0.0 | 0.0 | 0.00 | 0.00 | 0.00 | 78 | 1020.8 |
| 20260503045512 | 2 | 288 | 0.0 | 0.0 | 0.00 | 0.00 | 0.00 | 79 | 1020.8 |
| 20260503044007 | 3 | 288 | 0.0 | 0.0 | 0.00 | 0.00 | 0.00 | 75 | 1020.8 |
| 20260503042504 | 3 | 288 | 0.0 | 0.0 | 0.00 | 0.00 | 0.00 | 74 | 1020.6 |
| 20260503041002 | 3 | 289 | 0.0 | 0.0 | 0.00 | 0.00 | 0.00 | 72 | 1020.9 |
| 20260503035502 | 3 | 289 | 0.0 | 0.0 | 0.00 | 0.00 | 0.00 | 71 | 1020.9 |
| 20260503033957 | 3 | 289 | 0.0 | 0.0 | 0.00 | 0.00 | 0.00 | 73 | 1020.9 |
| 20260503032507 | 3 | 289 | 0.0 | 0.0 | 0.00 | 0.00 | 0.00 | 71 | 1021.0 |
| 20260503031006 | 4 | 289 | 0.0 | 0.0 | 0.00 | 0.00 | 0.00 | 69 | 1021.0 |
| 20260503025441 | 5 | 289 | 0.0 | 0.0 | 0.00 | 0.00 | 0.00 | 67 | 1021.0 |
| 20260503023937 | 5 | 289 | 0.0 | 0.0 | 0.00 | 0.00 | 0.00 | 63 | 1021.1 |
| 20260503022435 | 6 | 289 | 0.0 | 0.0 | 0.00 | 0.00 | 0.00 | 63 | 1021.2 |
| 20260503020928 | 6 | 289 | 0.0 | 0.0 | 0.00 | 0.00 | 0.00 | 62 | 1021.0 |
| 20260503015418 | 6 | 289 | 0.0 | 0.0 | 0.00 | 0.00 | 0.00 | 60 | 1020.9 |
| 20260503013907 | 6 | 289 | 0.0 | 0.0 | 0.00 | 0.00 | 0.00 | 58 | 1020.9 |
| 20260503012406 | 6 | 289 | 0.0 | 0.0 | 0.00 | 0.00 | 0.00 | 59 | 1020.7 |
| 20260503010921 | 7 | 289 | 0.0 | 0.0 | 0.00 | 0.00 | 0.00 | 54 | 1020.7 |
| 20260503005357 | 7 | 289 | 0.0 | 0.0 | 0.00 | 0.00 | 0.00 | 51 | 1020.8 |
| 20260503003854 | 7 | 289 | 0.0 | 0.0 | 0.00 | 0.00 | 0.00 | 49 | 1020.6 |
| 20260503002347 | 8 | 289 | 0.0 | 0.0 | 0.00 | 0.00 | 0.00 | 49 | 1020.7 |
| 20260503000837 | 8 | 289 | 0.0 | 0.0 | 0.00 | 0.00 | 0.00 | 46 | 1020.6 |
| 20260502235328 | 8 | 277 | 0.0 | 0.0 | 0.00 | 0.00 | 0.00 | 47 | 1020.5 |
| 20260502233827 | 8 | 284 | 0.0 | 0.0 | 0.00 | 0.00 | 0.00 | 47 | 1020.5 |
| 20260502232321 | 8 | 280 | 0.0 | 0.0 | 0.00 | 0.00 | 0.00 | 47 | 1020.7 |
| 20260502230818 | 9 | 283 | 0.0 | 0.0 | 0.00 | 0.00 | 0.00 | 44 | 1020.6 |
| 20260502225314 | 10 | 282 | 0.0 | 0.0 | 0.00 | 0.00 | 0.00 | 41 | 1020.5 |
| 20260502223807 | 10 | 284 | 0.0 | 0.0 | 0.00 | 0.00 | 0.00 | 45 | 1020.8 |
| 20260502222258 | 10 | 307 | 0.0 | 0.0 | 0.00 | 0.00 | 0.00 | 42 | 1020.8 |
| 20260502220749 | 10 | 284 | 0.0 | 1.6 | 0.00 | 0.00 | 0.00 | 44 | 1020.8 |